User: anonymous   Login
Location: Slidell
(30.2789°N, 89.7378°W)
Time: 23:06:41
(UTC-05:00)
Language:

Cosmos 2360 Rocket - Orbit

View from above orbital plane
View from above orbital plane
View from above satellite
View from above satellite

Ground track
Ground track

The orbit data is extracted from the following two-line orbital elements,

1 25407U 98045B   18170.55228018 -.00000092 +00000-0 -22724-4 0  9996
2 25407 071.0110 349.4172 0007761 351.1789 008.9196 14.15774437027910
Epoch (UTC): 19 June 2018 13:15:17
Eccentricity: 0.0007761
inclination: 71.0110°
perigee height: 834 km
apogee height: 845 km
right ascension of ascending node: 349.4172°
argument of perigee: 351.1789°
revolutions per day: 14.15774437
mean anomaly at epoch: 8.9196°
orbit number at epoch: 2791

The dashed part of the orbit path shows where the satellite is in the earth's shadow,  

DLR